Peoria, IL

7:22 AM CST on November 12, 2019 (GMT -0600)
Greater Peoria Regional

Weather History for KPIA - September, 2019

Change the Weather History Date:

Friday, September 20, 2019

  Actual Average Record
Temperature  
Mean Temperature 80 °F 64 °F  
Max Temperature 90 °F 75 °F 94 °F (1940)
Min Temperature 69 °F 53 °F 32 °F (1991)
Degree Days  
Heating Degree Days 0 4  
Month to date heating degree days 0 33  
Since 1 July heating degree days 0 39  
Cooling Degree Days 14 3  
Month to date cooling degree days 167 97  
Year to date cooling degree days 1149 1004  
Growing Degree Days 30 (Base 50)    
Moisture  
Dew Point 66 °F    
Average Humidity 70    
Maximum Humidity 84    
Minimum Humidity 50    
Precipitation  
Precipitation T in 0.11 in 1.57 in (1883)
Month to date precipitation 1.76 2.17  
Year to date precipitation 35.28 27.12  
Snow  
Snow 0.00 in 0.00 in 0.00 in ()
Month to date snowfall 0.0 0.0  
Since 1 July snowfall 0.0 0.0  
Since 1 September snowfall 0.0 0.0  
Snow Depth 0.00 in    
Sea Level Pressure  
Sea Level Pressure 30.08 in    
Wind  
Wind Speed 7 mph ()    
Max Wind Speed 18 mph    
Max Gust Speed 32 mph    
Visibility 10.0 miles    
Events Rain , Thunderstorm    
T = Trace of Precipitation, MM = Missing Value Source: Averaged Metar Reports

Daily Weather History Graph

Daily Weather History Graph

Search for Another Location

Airport or City:

Astronomy

Sep. 20, 2019 Rise Set
Actual Time 6:44 AM CDT 6:59 PM CDT
Civil Twilight 6:16 AM CDT 7:26 PM CDT
Nautical Twilight 5:44 AM CDT 7:58 PM CDT
Astronomical Twilight 5:11 AM CDT 8:31 PM CDT
Moon 10:47 PM CDT (9/20) 12:50 PM CDT (9/20)
Length of Visible Light 13h 10m
Length of Day
12h 15m
Waning Gibbous, 65% of the Moon is Illuminated
Sep 20
Waning Gibbous
Sep 21
Last Quarter
Sep 28
New
Oct 5
First Quarter
Oct 13
Full

Hourly Weather History & Observations

Time (CDT) Temp. Heat Index Dew Point Humidity Pressure Visibility Wind Dir Wind Speed Gust Speed Precip Events Conditions
12:54 AM 73.9 °F - 64.0 °F 71% 30.04 in 10.0 mi SSW 6.9 mph - N/A   Scattered Clouds
1:50 AM 71.6 °F - 64.4 °F 78% 30.06 in 10.0 mi South 3.5 mph - N/A Thunderstorm Clear
1:54 AM 72.0 °F - 64.9 °F 78% 30.05 in 10.0 mi South 3.5 mph - N/A Thunderstorm Clear
2:23 AM 73.0 °F - 64.9 °F 76% 30.07 in 10.0 mi ESE 3.5 mph - N/A   Mostly Cloudy
2:54 AM 75.9 °F - 64.0 °F 67% 30.05 in 10.0 mi North - - N/A   Overcast
3:32 AM 73.9 °F - 64.9 °F 73% 30.10 in 10.0 mi NNE 16.1 mph 24.2 mph N/A Thunderstorm Overcast
3:42 AM 72.0 °F - 63.0 °F 73% 30.11 in 10.0 mi NNE 15.0 mph 32.2 mph N/A Thunderstorm Thunderstorm
3:52 AM 69.8 °F - 62.6 °F 78% 30.11 in 10.0 mi NE 10.4 mph 21.9 mph 0.00 in Rain , Thunderstorm Light Thunderstorms and Rain
3:54 AM 70.0 °F - 63.0 °F 78% 30.10 in 10.0 mi NE 12.7 mph 19.6 mph 0.00 in Rain , Thunderstorm Light Thunderstorms and Rain
4:22 AM 69.1 °F - 64.0 °F 84% 30.12 in 10.0 mi ENE 10.4 mph - 0.00 in Rain , Thunderstorm Light Rain
4:54 AM 70.0 °F - 64.0 °F 81% 30.10 in 10.0 mi ENE 12.7 mph - 0.00 in Thunderstorm Mostly Cloudy
5:08 AM 70.0 °F - 64.0 °F 81% 30.11 in 10.0 mi ENE 13.8 mph - 0.00 in Rain , Thunderstorm Light Thunderstorms and Rain
5:23 AM 70.0 °F - 64.0 °F 81% 30.11 in 10.0 mi ENE 10.4 mph - 0.00 in Rain , Thunderstorm Light Rain
5:54 AM 71.1 °F - 63.0 °F 75% 30.09 in 10.0 mi Variable 6.9 mph - 0.00 in   Overcast
6:54 AM 70.0 °F - 63.0 °F 78% 30.11 in 10.0 mi East 5.8 mph - N/A   Overcast
7:54 AM 70.0 °F - 64.0 °F 81% 30.14 in 10.0 mi North 3.5 mph - N/A   Overcast
8:54 AM 72.0 °F - 64.0 °F 76% 30.12 in 10.0 mi Calm Calm - N/A   Overcast
9:54 AM 79.0 °F - 64.9 °F 62% 30.10 in 10.0 mi SSW 5.8 mph - N/A   Clear
10:54 AM 82.0 °F 84.1 °F 66.0 °F 58% 30.10 in 10.0 mi Calm Calm - N/A   Clear
11:54 AM 82.9 °F 85.4 °F 66.9 °F 58% 30.11 in 10.0 mi East 6.9 mph - N/A   Clear
12:54 PM 87.1 °F 90.6 °F 68.0 °F 53% 30.09 in 10.0 mi ESE 6.9 mph - N/A   Clear
1:54 PM 86.0 °F 88.8 °F 66.9 °F 53% 30.07 in 10.0 mi ESE 6.9 mph - N/A   Scattered Clouds
2:54 PM 89.1 °F 92.9 °F 68.0 °F 50% 30.05 in 10.0 mi ESE 6.9 mph - N/A   Partly Cloudy
3:54 PM 86.0 °F 88.8 °F 66.9 °F 53% 30.04 in 10.0 mi SSE 8.1 mph - N/A   Partly Cloudy
4:54 PM 87.1 °F 89.9 °F 66.9 °F 51% 30.04 in 10.0 mi SE 6.9 mph - N/A   Partly Cloudy
5:54 PM 84.0 °F 86.5 °F 66.9 °F 56% 30.04 in 10.0 mi SE 4.6 mph - N/A   Clear
6:54 PM 81.0 °F 83.8 °F 68.0 °F 65% 30.05 in 10.0 mi SE 4.6 mph - N/A   Clear
7:54 PM 81.0 °F 83.8 °F 68.0 °F 65% 30.07 in 10.0 mi SSE 5.8 mph - N/A   Partly Cloudy
8:54 PM 79.0 °F - 69.1 °F 72% 30.08 in 10.0 mi SSE 6.9 mph - N/A   Clear
9:54 PM 79.0 °F - 69.1 °F 72% 30.08 in 10.0 mi South 10.4 mph - N/A   Clear
10:54 PM 75.9 °F - 69.1 °F 79% 30.08 in 10.0 mi South 9.2 mph - N/A   Clear
11:54 PM 73.9 °F - 68.0 °F 82% 30.08 in 10.0 mi South 9.2 mph - N/A   Clear